Overview Statistics Trail Chart Weather Telemetry Raw packets
 

This is the latest recevied weather packets stored in our database for station/object 4S6DRJ-13. If no packets are shown the sender has not sent any weather packets the latest 10 day(s).

<< 236 237 238 239 240 241 242 >>
Time Temp. Humidity Pressure Rain* Wind** Luminosity Snow
1788118942 27.78° C 84% 1009.6 hPa 0 mm 1.34 m/s, 232° 0 W/m² -
1788118881 27.78° C 85% 1009.9 hPa 0 mm 0.89 m/s, 212° 0 W/m² -
1788118820 27.78° C 85% 1009.7 hPa 0 mm 0.45 m/s, 239° 0 W/m² -
1788118759 27.78° C 85% 1009.8 hPa 0 mm 2.24 m/s, 211° 0 W/m² -
1788118698 27.78° C 85% 1009.7 hPa 0 mm 0.89 m/s, 158° 0 W/m² -
1788118638 27.78° C 85% 1009.7 hPa 0 mm 0 m/s 0 W/m² -
1788118576 27.78° C 85% 1009.8 hPa 0 mm 0 m/s 0 W/m² -
1788118519 27.78° C 85% 1009.8 hPa 0 mm 0.89 m/s, 238° 0 W/m² -
1788118454 27.78° C 85% 1009.9 hPa 0 mm 0.45 m/s, 200° 0 W/m² -
1788118393 27.78° C 85% 1009.8 hPa 0 mm 1.79 m/s, 244° 0 W/m² -
1788118332 27.78° C 85% 1009.9 hPa 0 mm 0.89 m/s, 256° 0 W/m² -
1788118271 27.78° C 85% 1009.7 hPa 0 mm 0.45 m/s, 200° 0 W/m² -
1788118210 27.78° C 85% 1009.8 hPa 0 mm 2.24 m/s, 224° 0 W/m² -
1788118149 27.78° C 85% 1009.7 hPa 0 mm 1.34 m/s, 184° 0 W/m² -
1788118088 27.78° C 85% 1010 hPa 0 mm 0.45 m/s, 189° 0 W/m² -
1788118027 27.78° C 85% 1009.8 hPa 0 mm 0.89 m/s, 238° 0 W/m² -
1788117966 27.78° C 85% 1009.8 hPa 0 mm 0.89 m/s, 238° 0 W/m² -
1788117905 27.78° C 85% 1009.9 hPa 0 mm 1.34 m/s, 245° 0 W/m² -
1788117844 27.78° C 85% 1010 hPa 0 mm 0.89 m/s, 217° 0 W/m² -
1788117783 27.78° C 85% 1009.9 hPa 0 mm 1.79 m/s, 242° 0 W/m² -
1788117722 28.33° C 85% 1009.9 hPa 0 mm 0.45 m/s, 218° 0 W/m² -
1788117660 28.33° C 85% 1009.8 hPa 0 mm 0.89 m/s, 221° 0 W/m² -
1788117600 28.33° C 85% 1009.7 hPa 0 mm 0.89 m/s, 313° 0 W/m² -
1788117539 28.33° C 85% 1010 hPa 0 mm 0 m/s 0 W/m² -
1788117478 28.33° C 85% 1010 hPa 0 mm 0 m/s 0 W/m² -

* Rain latest hour (hover to see other rain measurements)
** Current wind speed in m/s (hover to see current wind gust speed)